Race Results for
Golden State Race Series
Rancho Cordova California, CA
(Event Information)
Road Race on 05/22/2011

Note: Ranking points are NOT upgrade points. An explanation of ranking points can be found here.


Men - Cat4/5 - Master - 30-99

 Place Points NameCity, StateTime USAC #BibTeam
1419.19David Nasca   Roseville, CA00:00.rd 41192  531 Folsom Bike
2421.82Kevin Miller   Granite Bay, CA00:00.rd 307115  588 Victory Velo
3424.45Morgan Mahanke   El Dorado Hills, CA00:00.rd 226577  523 Team Bicycles Plus/Sierra Neva
4427.08Chad Cheadle   Petaluma, CA00:00.rd 209823  506 Colavita Racing-Norcal
5429.71Craig Dolley   El Dorado Hills, CA00:00.rd 158073  508 Team Bicycles Plus/Sierra Neva
6432.34Steve Ball   Napa, CA00:00.rd 59338  590 Unattached
7434.97Sean Gilson   Sacramento, CA00:00.rd 321722  591 Unattached
8437.60Emilio Alvarez   Rutherford, CA00:00.rd 306712  551 portocork round pond racing
9440.23Ryan Odell   Sacramento, CA00:00.rd 288200  533 Davis Bike Club Race Team
10442.86David Woodhouse   Lincoln, CA00:00.rd 272962  586 Victory Velo
11445.49Ryan Malm   Sacramento, CA00:00.rd 296229  562 Davis Bike Club
12448.12Keith Griffin   Stockton, CA00:00.rd 14170  557 Kinetic Cycles/GBI
13450.75Francis Goldsberry   Sacramento, CA00:00.rd 132927  513 Sacramento Golden Wheelmen
14453.38Dean Klotz   Cameron Park, CA00:00.rd 139360  596 Team Revolutions
15456.01Gregg Lehman   Vacaville, CA00:00.rd 250959  521 Precision Stone Racing
16458.64Curtis Hoyt   Kelsey, CA00:00.rd 291773  559 bicycle planet
17461.27James Bowland   Sacramento, CA00:00.rd 95125  502 Sacramento Golden Wheelmen
18463.90Noah Campbell-Lund   Nevada City, CA00:00.rd 333700  504 SHO-AIR/SERT
19466.53Brian Pantiga   Folsom, CA00:00.rd 61633  535 Bicycle Planet
20469.16Yutch Cowhie   Fair Oaks, CA00:00.rd 261718  555 Rio Strada Racing
21UNKNOWN RIDER   00:00.rd   
22474.42Aaron Marchand   Sacramento, CA00:00.rd 289169  575 Health is Wealth powered by Wh
23477.05Chad Richards   Antelope, CA00:00.rd 305850  539 Team Bicycles Plus/ Sierra Nev
24479.68Paul Higley   Redding, CA00:00.rd 324504  517 Team Revolutions
25482.31Trevor Oldershaw   Albany, CA00:00.rd 294096  564 BBC
26484.94Sean Odom   Carmichael, CA00:00.rd 223061  534 Rio Strada Racing
27487.57Robin McKinney   Lincoln, CA00:00.rd 276168  525 VictoryVelo
28490.20Peter Gemmell   Sacramento, CA00:00.rd 56304  512 Rio Strada Racing
29492.83Rocky Fletcher   Sacramento , CA00:00.rd 324460  583 Rio Strada Racing
30495.46Jesse Scatton   Sacramento, CA00:00.rd 31445  543 Bullseye/East Sac Bike
31498.09Benjamin Weekes   Oakland, CA00:00.rd 109383  566 Major Motion Cycling Club
32500.72Russell Cameron   Grass Valley, CA00:00.rd 332950  554 SHO-AIR/SERT
33503.35peter brisbo   Walnut Creek, CA00:00.rd 347700  553 major motion
34505.98Frank Lunceford Sr   El Dorado Hills, CA00:00.rd 273343  522 Bicycle Planet
35508.61Philip Blay   Folsom, CA00:00.rd 274756  589 Folsom Bike
36511.24Peter Meyer   Mount Aukum, CA00:00.rd 219925  527 Bicycle Planet
37513.87Hooshang Mehranpour (1 - Cat5)   Granite Bay, CA00:00.rd 335018  526 Rio Strada Racing
38516.50Gregg Roh   Sacramento, CA00:00.rd 58416  540 Sacramento Golden Wheelmen
39519.13Kwang Kim   Fair Oaks, CA00:00.rd 236974  519 Team City
40521.76Lance Loveday   Auburn, CA00:00.rd 305459  561 Victory Velo
41524.39Jacob Ward (2 - Cat5)   Oakland, CA00:00.rd 352748  594 MAJOR MOTION
42527.02Mike Munoz   Cameronpark, CA00:00.rd 307140  530 Revolutions
43529.65Donald Eipper   El Dorado Hills, CA00:00.rd 248941  556 Team Revolutions
44532.28Derek Byrne   Sacramento, CA00:00.rd 242323  593 Davis Bike Club Race Team
45534.91Christopher Grove   Sacramento, CA00:00.rd 332750  515 Body Concepts
46537.54Tim Huang   Santa Clara, CA00:00.rd 334324  560 SJBC
47540.17Troy Underwood   Rancho Cordova, CA00:00.rd 238691  549 Sacramento Golden Wheelmen
48542.80Jeff Mittner   Folsom, CA00:00.rd 286671  528 Team Bicycles Plus/Sierra Neva
49545.43jeff finn (3 - Cat5)   Concord, CA00:00.rd 305380  582 Unattached
50548.06David Haslemann   Folsom, CA00:00.rd 277664  516 Rio Strada Racing
51550.69Maurice Reurich   Berkeley, CA00:00.rd 336290  595 COLVITA NOR CAL
52553.32Robert Goss   Folsom, CA00:00.rd 289041  514 Rio Strada Racing
53555.95Keith Purser   Folsom, CA00:00.rd 197080  565 Bicycle Planet
54UNKNOWN RIDER   00:00.rd   
55561.21Dave Smith   Elk Grove, CA00:00.rd 237254  544 Rio Strada Racing
56563.84Dwayne Halterman   Napa, CA00:00.rd 175758  558 Portocork Round Pond Racing
57566.47Gilbert Martinez   Waxahachie, TX00:00.rd 181301  524 Rio Strada Racing
58569.10Christopher Townzen   Rogue River Or00:00.rd 332434  546 
59571.73Renzo Bernales   Sacramento, CA00:00.rd 76203  552 Team City Sacramento
60574.36Jeff Ochs   Chico, CA00:00.rd 264642  532 Chico Corsa
61576.99Richard Coyle   Granite Bay, CA00:00.rd 277158  584 Rio Strada Racing
62579.62Eddie Sahyoun   Rocklin, CA00:00.rd 291352  542 Rio Strada Racing
63582.25Steve Rosefield   Pleasanton, CA00:00.rd 298343  541 Tri Valley Velo
64584.88Nathanael Dunn   Fair Oaks, CA00:00.rd 290357  569 Rio Strada Racing
65587.51Greg Tsutaoka   Oakland, CA00:00.rd 296665  585 Berkeley Bicycle Club (BBC)
66590.14Kyle Daugherty (4 - Cat5)   Nevadacity, CA00:00.rd 304539  592 SHO-AIR/ SERT
DNSGabriel Garroni   Mc Kinney, TX00:00.rd 280689  511 Rio Strada
DNSJosh Keel   Morgan Hill, CA00:00.rd 194966  518 Rio Strada Racing
DNSRonnie Leavitt   Rocklin, CA00:00.rd 319284  520 Rio Strada Racing
DNPAdam Andelin   Elk Grove, CA00:00.rd 128711  501 Rio Strada Racing
DNPJohn Collins   Folsom, CA00:00.rd 231774  507 Team Revolutions
DNPPatrick Peters   Davis, CA00:00.rd 303960  536 Body Concepts
DNPBrian Prahl   Sacaramento, CA00:00.rd 305088  538 Sacramento Golden Wheelmen
DNPMark Stern   Folsom, CA00:00.rd 272223  545 Rio Strada Racing
DNPRome Mubarak   Oakland, CA00:00.rd 284394  563 Major Motion Cycling Club
DNPJustin Madison   Vacaville, CA00:00.rd 304658  568 percision stone racing
DNPDerek Novaes   West Sacramento, CA00:00.rd 274484  571 Rio Strada Racing
DNPJuan Ortiz   Castro Valley, CA00:00.rd 26838  587 Unattached

Men - Cat1/2/3/4 - Master - 45-99

 Place Points NameCity, StateTime USAC #BibTeam
1260.58Michael O'Rourke   Auburn, CA00:00.rd 204496  668 SAFEWAY/PureRed Creative/Bicyc
2267.07Joel Robertson   San Leandro, CA00:00.rd 220316  672 Webcor/Alto Velo
3273.56Stephen Gregorios   Long Beach, CA00:00.rd 135047  608 Edge
4280.05Christopher Bowlus   Davis, CA00:00.rd 244782  666 Davis Bike Club Race Team
5286.54Gregg Betonte   Truckee, CA00:00.rd 255414  663 SAFEWAY/PureRed Creative/Bicyc
6293.03Bubba Melcher   Reno, NV00:00.rd 23961  673 Team Clover
7299.52Boris Rozenberg   Daly City, CA00:00.rd 190311  616 
8306.01Steve Showler   Carmichael, CA00:00.rd 32554  645 Morgan Stanley Smith Barney/Specialized
9312.50Ken Hill   Woodland, CA00:00.rd 274292  638 Davis Bike Club
10318.99Max Mack   Sacramento, CA00:00.rd 45629  653 Health is Wealth powered by Wh
11325.48Mark Robertson   Oakland, CA00:00.rd 237380  670 Lamorinda Cycling Club
12331.97Rodney Spradlin   El Dorado Hills, CA00:00.rd 122266  620 Rocknasium
13338.46Stan Urban   San Rafael, CA00:00.rd 178098  669 Morgan Stanley Cycling Team
14344.95John Hansen   Danville, CA00:00.rd 113380  658 Wells Fargo Racing Team
16351.44Gary Wall   Long Beach, CA00:00.rd 188986  622 Pinnaclife/Radsport
17357.93Jonathan Laine   Truckee, CA00:00.rd 256153  667 SAFEWAY/PureRed Creative/Bicyc
18364.42Joseph Oliveri   Grass Valley, CA00:00.rd 26674  614 Rocknasium
19370.91Kevin McMurtry   Nevada City, CA00:00.rd 287169  628 SHO-AIR/SERT
20377.40David Montgomery   Olympic Valley, CA00:00.rd 302935  659 Truckee Bicycle Team
21383.89Scott Cruickshank   Santa Barbara, CA00:00.rd 154715  671 Guinness Cycling Team
22390.38Richard Nichols   Danville, CA00:00.rd 286421  630 Tri Valley Velo
23396.87J Clifford   Roseville, CA00:00.rd 232661  601 Team Bicycles Plus/Sierra Neva
24403.36Kelly Silberberg   San Anselmo, CA00:00.rd 107871  619 SJBC
25409.85Shawn Miller   Davis, CA00:00.rd 24477  629 Davis Bike Club
26416.34Duane Strawser   Nevada City, CA00:00.rd 34392  621 SHO-AIR/SERT
27422.83Ken Todd   Folsom, CA00:00.rd 174881  637 Team Bicycles Plus/Sierra Neva
28429.32Bill Higgins (1 - Cat4)   Sacramento, CA00:00.rd 240634  649 Squadra Abruzzo
29435.81Jeffrey Griffo   Homewood, CA00:00.rd 180137  655 Truckee Bicycle Team
30442.30Keith Griffin (2 - Cat4)   Stockton, CA00:00.rd 14170  625 Kinetic Cycles/GBI
31448.79Frank Lunceford Sr   El Dorado Hills, CA00:00.rd 273343  657 Bicycle Planet
32455.28Tony Reid (1 - Cat3)   Sacramento, CA00:00.rd 29458  633 SAFEWAY/PureRed Creative/Bicyc
33461.77Thomas Kellner   Sacramento, CA00:00.rd 195574  627 Davis Bike Club Race Team
34468.26Katsuhiro Tanda (2 - Cat3)   Athens, OH00:00.rd 219952  656 Team Athens
35474.75Randy Farrens (3 - Cat3)   Sacramento, CA00:00.rd 143681  606 Rio Strada Racing
36481.24James Blankenship   Rescue, CA00:00.rd 53651  665 Body Concepts
37487.73Steve Grube   Sacramento, CA00:00.rd 51158  626 Sacramento Golden Wheelmen
38494.22Michael Cochran   Sacramento, CA00:00.rd 297795  602 Bullseye/East Sac Bike
39500.71Mitchell Rohrer   Sacramento, CA00:00.rd 30439  661 Team City Sacramento
40507.20Brian Hitchman   Folsom, CA00:00.rd 48419  610 Team Bicycles Plus/Sierra Neva
41513.69Clark Rasmussen (1 - Cat2)   San Francisco, CA00:00.rd 47316  632 Wells Fargo Racing Team
42520.18Fred Schnaars   Davis, CA00:00.rd 65032  618 Davis Bike Club Race Team
43526.67R Todd Marshall   Sacramento, CA00:00.rd 43936  654 Kinetic Cycles/GBI
44533.16Scott Wienker   Davis, CA00:00.rd 290904  662 Davis Bike Club Race Team
45539.65James Winne   Roseville, CA00:00.rd 130974  674 Woodcreek High School Cycling
46546.14Craig Lindberg   Nevada City, CA00:00.rd 83707  612 SHO-AIR/SERT
47552.63Peter Krogh   Nevada City, CA00:00.rd 177339  611 SHO-AIR/ SERT
48559.12Nabil Samaan   Fair Oaks, CA00:00.rd 177518  617 Kinetic Cycles/gbi
DNSRichard Coyle   Granite Bay, CA00:00.rd 277158  603 Rio Strada Racing
DNSDouglas Gonda   Truckee, CA00:00.rd 13594  604 Team Bicycles Plus/Sierra Neva
DNSGerald Roberts   Sacramento, CA00:00.rd 30073  615 Team Bicycles Plus/Sierra Neva
DNSRusk Whipps   Petaluma, CA00:00.rd 266460  623 Sierra Express
DNSMark Perry   Auburn, CA00:00.rd 288400  631 Rocknasium
DNPThomas Coulter   Rocklin, CA00:00.rd 74102  660 Morgan Stanley Smith Barney/Sp

Men - Cat1/2/3 - Master - 35-39

 Place Points NameCity, StateTime USAC #BibTeam
1200.13Jesse Moore   Sacramento, CA00:00.rd 204739  464 California Giant Berry Farms/S
2207.10Scott Fonseca   Fair Oaks, CA00:00.rd 204715  441 Zenn Racing Team
3214.07Jason Grefrath   Sacramento, CA00:00.rd 281883  434 Taleo Racing
4221.04Gregg Betonte   Truckee, CA00:00.rd 255414  484 SAFEWAY/PureRed Creative/Bicyc
5228.01Jason Boynton   Yuba City, CA00:00.rd 4526  458 Mercedes Benz/Folsom Bike
6234.98Christopher Baker   Sacramento, CA00:00.rd 47424  401 Morgan Stanley-Smith Barney/Sp
7241.95Joseph Staron   Sacramento, CA00:00.rd 132859  455 Unattached
8248.92Matt Connolly (1 - Cat2)   Sacramento, CA00:00.rd 302694  405 Rio Strada Racing
9255.89Stephen McCaw   Sacramento, CA00:00.rd 62322  481 Rocknasium
10262.86Patrick McClurg   Citrus Heights, CA00:00.rd 48984  414 Mercedes Benz/Folsom Bike
11269.83Michael O'Rourke   Auburn, CA00:00.rd 204496  474 SAFEWAY/PureRed Creative/Bicyc
12276.80Gregory Anderson   Vacaville, CA00:00.rd 90802  453 Morgan Stanley Cycling Team
13283.77Gregory Gambetta   Sacramento, CA00:00.rd 212916  487 Folsom Bike
14290.74Chris Espy   Sacramento, CA00:00.rd 61649  450 Morgan Stanley Smith Barney/Sp
15297.71Judd Van Sickle   Sacramento, CA00:00.rd 127052  428 Mercedes Benz/Folsom Bike
16304.68Keith DeFiebre   Prunedale, CA00:00.rd 9046  451 Central Coast Cycling Club
17311.65Richard Steele   El Dorado Hills, CA00:00.rd 58347  478 Sacramento Golden Wheelmen
18318.62John Armer   El Dorado Hills, CA00:00.rd 93144  400 Team Bicycles Plus/Sierra Neva
19325.59Jeff Watson   Elk Grove, CA00:00.rd 293136  430 Team Bicycles Plus/Sierra Neva
20332.56Matthew Ream (2 - Cat2)   Verdi, NV00:00.rd 211441  483 Great Basin Imaging | Kinetic
21339.53Rob Cady   Elk Grove, CA00:00.rd 49774  454 Rocknasium
22346.50John Hansen   Danville, CA00:00.rd 113380  471 Wells Fargo Racing Team
23353.47Mark Robertson   Oakland, CA00:00.rd 237380  485 Lamorinda Cycling Club
24360.44Alex Holtz   Sacramento, CA00:00.rd 61440  410 Morgan Stanley Smith Barney/Sp
25367.41Boris Rozenberg   Daly City, CA00:00.rd 190311  422 
26Stan URBAN   00:00.rd  486 MORGANSTANLEY
27381.35Steve Offerman   Sacramento, CA00:00.rd 81992  417 Rio Strada Racing
28388.32Scott Cruickshank   Santa Barbara, CA00:00.rd 154715  475 Guinness Cycling Team
29395.29Michael Egan   West Sacrametno, CA00:00.rd 124893  477 Sacramento Golden Wheelmen
30402.26Steve Thomsen   Reno, NV00:00.rd 245436  469 Great Basin Imaging Cycling Te
31409.23Jeff Scharmacher (1 - Cat3)   Folsom, CA00:00.rd 47581  449 Rio Strada Racing
32416.20Joseph Oliveri   Grass Valley, CA00:00.rd 26674  418 Rocknasium
33423.17Tom Vanderheiden   Pleasant Hill, CA00:00.rd 263253  472 Wells Fargo Racing Team
34430.14Chris Parod   Mather, CA00:00.rd 270992  476 Team Bicycles Plus/Sierra Neva
35437.11Alvaro Mosquera   Sacramento, CA00:00.rd 236809  415 Team Bicycles Plus/Sierra Neva
36444.08Ron Rouse   Sacramento, CA00:00.rd 166249  421 Rio Strada Racing
37451.05Henry Rabas   West Sacramento, CA00:00.rd 28975  436 Team Bicycle Plus/Sierra Nevad
38458.02Rodney Spradlin   El Dorado Hills, CA00:00.rd 122266  425 Rocknasium
39464.99Paul Taylor   Brentwood, CA00:00.rd 207281  473 Metromint Cycling
40471.96Trevor White   Oakland, CA00:00.rd 503  480 CalNorte VC Switchbacks
41478.93Dave Kause   Sacramento, CA00:00.rd 175157  445 belgiumbike/QS North America
42UNKNOWN RIDER   00:00.rd  ??? -------
43492.87John Fairbanks   Sacramento, CA00:00.rd 83306  407 Morgan Stanley Smith Barney/Sp
44499.84Richard Bradley   Sacramento, CA00:00.rd 223944  402 Rio Strada
45506.81Rich Tabuso   Roseville, CA00:00.rd 274439  426 Rio Strada Racing
413513.78Bob McCamish (2 - Cat3)   Roseville, CA00:00.rd 285998  413 Rio Strada Racing
DNSKenny Lane   Citrus Heights, CA00:00.rd 274485  411 Rio Strada Racing
DNPMichael Brown   Gold River, CA00:00.rd 141483  404 GBI/Kinetic Cycles
DNPChris Dawson   Sacramento, CA00:00.rd 224241  406 Rio Strada Racing
DNPPeter Williams   Sacramento, CA00:00.rd 219604  431 Rio Strada Racing
DNPSteve Ball   Napa, CA00:00.rd 59338  433 Portocork Round Pond Racing
DNPClark Rasmussen (Cat2)   San Francisco, CA00:00.rd 47316  437 Wells Fargo Racing Team
DNPSteve Showler   Carmichael, CA00:00.rd 32554  443 MORGAN STANLEY
DNPMolly Van Houweling   Berkeley, CA00:00.rd 201051  479 Metromint Cycling
DNPJason Snovel   Sacramento, CA00:00.rd 268577  482 Mercedes Benz/Folsom Bike
DNFJohn Licatesi   Davis, CA00:00.rd 183265  412 Davis Bike Club

Men - Cat 5

 Place Points NameCity, StateTime USAC #BibTeam
1509.97Matt Rodrigues   Davis, CA00:00.rd 321302  320 davis bike club
2Matt FANTELLE   00:00.rd  337 MAD CAT RACING
3515.49Patrick Callan   Fair Oaks, CA00:00.rd 323184  341 Unattached
4518.25Michael LaFrenais   Roseville, CA00:00.rd 227848  306 Rio Strada Racing
5521.01Jeff Thompson   Reno, NV00:00.rd 337008  316 
6523.77Dean Klotz   Cameron Park, CA00:00.rd 139360  335 Team Revolutions
7526.53Phil Schmidt   Orangevale, CA00:00.rd 334806  340 Victory Velo
8529.29Peter Gemmell   Sacramento, CA00:00.rd 56304  302 Rio Strada Racing
9532.05Nathaniel Powell   Antelope, CA00:00.rd 288682  333 Unattached
10534.81Schuyler Wilcox   Sacramento, CA00:00.rd 335466  317 
11537.57Matthew Leary   Seattle, WA00:00.rd 311391  331 Unattached
12540.33Trevor Johnston   Citrusheights, CA00:00.rd 317078  339 Unattached
13543.09Yutch Cowhie   Fair Oaks, CA00:00.rd 261718  318 Rio Strada Racing
14545.85Noah McGee   Davis, CA00:00.rd 338854  336 DBC
15548.61Jeff Farley   Rancho Cordova, CA00:00.rd 339050  301 Kinetic Cycles
16551.37Clint Williams   Rio Linda, CA00:00.rd 331630  321 Team BEER
17554.13Mark Stern   Folsom, CA00:00.rd 272223  315 Rio Strada Racing
18556.89Erik Jensen   Carmichael, CA00:00.rd 334108  332 Unattached
19559.65Cesar Perez   Rancho Cordova Ca00:00.rd 365929  334 
20562.41Daniel DiLoreto   Reno, NV00:00.rd 267342  330 
21Christopher WESTPHAL   00:00.rd  338 RIO STRADA RACING
22567.93Aaron Hills   Davis, CA00:00.rd 317556  303 davis bike club
23570.69Michael O'Dell   Folsom, CA00:00.rd 231563  311 Folsom Bike
24573.45Scott Mauger   Davis, CA00:00.rd 332254  319 Davis Bike Club Race Team
25576.21Michael Shelver   Concord, CA00:00.rd 335160  314 Tieni Duro
26578.97Richard Nagel   Vacaville, CA00:00.rd 345938  310 Grass Roots Racing pb Vinny the Wrench
27581.73Tom Tabuso   Antelope, CA00:00.rd 333192  399 Rio Strada Racing
28584.49Jason Stumbo   Citrus Heights, CA00:00.rd 211997  397 DAA/REMAX
29Dave BLEVINS   00:00.rd  300 
30Alex NEWCOMB   00:00.rd  327 TEAM CITY
DNPStephen Jones   Sacramento, CA00:00.rd 331370  305 Rio Strada Racing

Men - Cat 4

 Place Points NameCity, StateTime USAC #BibTeam
1453.21Ricardo Contreras   Panorama City, CA00:00.rd 272584  263 UC-Santa Cruz
2456.12Benjamin Baxter   Reno Nevada00:00.rd 293459  274 Reno Wheelmen
3459.03David Grundman   Davis, CA00:00.rd 240540  216 Davis Bike Club Race Team
4461.94Jeff Schaller   Davis, CA00:00.rd 317858  235 Davis Bike Club
5464.85SAMMY TRUJILLO   Rancho Cordova, CA00:00.rd 286935  261 Rio Strada Racing
6467.76Aaron Marchand   Sacramento, CA00:00.rd 289169  262 Health is Wealth powered by Wh
7470.67Tyler Swartz   San Francisco, CA00:00.rd 304004  252 Team Roaring Mouse
8473.58Travis Lee   Citrus Heights, CA00:00.rd 299720  225 Rio Strada Racing
9476.49Ryan Malm   Sacramento, CA00:00.rd 296229  250 Davis Bike Club
10479.40Jon Keyzer   Fort Collins, CO00:00.rd 298334  222 Chico Corsa
11482.31Jereme Altenberg   Davis, CA00:00.rd 309379  201 Davis Bike Club Race Team
12485.22Curt Mills   Gold River, CA00:00.rd 299412  268 Bicycles Plus Sierra Nevada
13488.13Matt McKinzie   San Francisco, CA00:00.rd 306438  227 Swami's Cycling Club
14491.04corey duren   Chico, CA00:00.rd 320490  208 Chico Corsa
15493.95adam thatcher   Chico, CA00:00.rd 311983  238 Chico Corsa
16496.86Nicolas Jimenez   Golden, CO00:00.rd 305250  276 Team Mad Cat
17499.77Gary Thompson   Davis, CA00:00.rd 286875  239 team City Sacramento
18502.68Nicholas Hack   Berkeley, CA00:00.rd 281233  255 Team Roaring Mouse
19505.59Rocky Fletcher   Sacramento , CA00:00.rd 324460  212 Rio Strada
20508.50Jason MartelDye   Sacramento, CA00:00.rd 310948  254 Unattached
21511.41Casey Fallon   Sacramento, CA00:00.rd 331532  278 Rio Strada Racing
22514.32Greg Tsutaoka   Oakland, CA00:00.rd 296665  275 Berkeley Bicycle Club (BBC)
23517.23Daniel Lebson   Folsom, CA00:00.rd 295237  224 Rio Strada Racing
24520.14Scott Waters   Reno, NV00:00.rd 298411  244 Reno Wheelmen
25523.05Paul Higley   Redding, CA00:00.rd 324504  219 Team Revolutions
26525.96James Sears   Lafayette, CA00:00.rd 328346  236 Unattached
27528.87Derek Novaes   West Sacramento, CA00:00.rd 274484  228 Rio Strada Racing
28531.78John Becker   Sanfrancisco, CA00:00.rd 284814  248 Team Mike's Bikes
29534.69Ryan Alvey   Sacramento, CA00:00.rd 274522  202 Davis Bike Club
30537.60Craig Martin   Auburn, CA00:00.rd 304421  226 Rio Strada Racing
31540.51Mateo Ortega   Brisbane, CA00:00.rd 255427  251 Team Roaring Mouse
32543.42Francis Goldsberry   Sacramento, CA00:00.rd 132927  215 Sacramento Golden Wheelmen
33546.33Eric Chi   Cupertino, CA00:00.rd 223566  204 Webcor/Alto Velo
34549.24Tim Tsuruda   Sunnyvale, CA00:00.rd 314158  241 Chica Sexy
35552.15James Coudright   Vacaville Ca00:00.rd 310351  271 Team City
36555.06Eric Aguilera   Carson City, NV00:00.rd 293392  200 Alta Alpina Cycling Club
37557.97Seth Callahan   Sanfrancisco, CA00:00.rd 304160  279 Team Roaring Mouse
38560.88Kalman Zeiger   San Francisco, CA00:00.rd 237651  246 Chica Sexy Spirit Courier
39563.79Mark Roberts   Sacramento, CA00:00.rd 305748  233 
40566.70Derek Byrne   Sacramento, CA00:00.rd 242323  280 Davis Bike Club Race Team
41569.61Joshua Taylor   Sanfrancisco, CA00:00.rd 287071  253 Team Roaring Mouse
42572.52Eddie Sahyoun   Rocklin, CA00:00.rd 291352  269 Rio Strada Racing
43Rick MCELMAN   00:00.rd  265 TEAM CITY
44578.34Josh Keel   Morgan Hill, CA00:00.rd 194966  221 Rio Strada Racing
45581.25Nathanael Dunn   Fair Oaks, CA00:00.rd 290357  207 Rio Strada Racing
46584.16Mark Valentino   El Dorado Hills, CA00:00.rd 112974  243 Folsom Bike
47587.07Steve Ball   Napa, CA00:00.rd 59338  247 Portocork Round Pond Racing
48589.98David Haslemann   Folsom, CA00:00.rd 277664  218 Rio Strada Racing
DNSRichard Coyle   Granite Bay, CA00:00.rd 277158  206 Rio Strada Racing
DNSJames Elder   Carmaichael, CA00:00.rd 271765  209 Rio Strada Racing
DNSGabriel Garroni   Mc Kinney, TX00:00.rd 280689  214 Rio Strada
DNSRonnie Leavitt   Rocklin, CA00:00.rd 319284  223 Rio Strada Racing
DNSJeff Ochs   Chico, CA00:00.rd 264642  229 Chico Corsa
DNSRyan Odell   Sacramento, CA00:00.rd 288200  230 Davis Bike Club Race Team
DNSAnthony ODell   Orangevale, CA00:00.rd 287267  231 Folsom Bike
DNSRobert Smith   Gold River , CA00:00.rd 299828  237 Rio Strada Racing
DNSAlex Braunstein   San Francisco, CA00:00.rd 303430  249 Team Roaring Mouse
DNPWilliam Habenick   Kapolei, HI00:00.rd 307132  217 Brentwood Bike Co.
DNPsaul uribe   Davis, CA00:00.rd 309500  242 Davis Bike Club Race Team

Men - Cat 3

 Place Points NameCity, StateTime USAC #BibTeam
1331.59Sam Benedict   Morgan Hill, CA00:00.rd 194963  101 Specialized
2336.72Rob Brandt   Ennis, MT00:00.rd 298803  103 Great Basin Imaging / Kinetic
3341.85Jeff Watson   Elk Grove, CA00:00.rd 293136  127 Team Bicycles Plus/Sierra Neva
4346.98Richard Steele   El Dorado Hills, CA00:00.rd 58347  123 Sacramento Golden Wheelmen
5352.11jimmy pham   Martinez, CA00:00.rd 322442  134 Taleo Racing
6357.24fergus tanaka   San Francisco, CA00:00.rd 304367  125 chica sexy
7362.37Matt Chatlaong   Roseville, CA00:00.rd 304797  104 Team City Sacramento
8367.50Nabil Samaan   Fair Oaks, CA00:00.rd 177518  121 Kinetic Cycles/gbi
9372.63Benjamin Dodge   San Jose, CA00:00.rd 178595  106 Bay 101/HRS/Rock Lobster
10377.76Kenny Lane   Citrus Heights, CA00:00.rd 274485  112 Rio Strada Racing
11382.89Michael Claudio   West Sacramento, CA00:00.rd 248052  105 Davis Bike Club
12388.02Jonathan (Jon) Rotzien   Stanford, CA00:00.rd 155766  120 STANFORD UNIVERSITY
13393.15Oliver Weiss   Roseville, CA00:00.rd 79603  128 Rio Strada Racing
14398.28Brandon Meadows   Sacramento, CA00:00.rd 250736  116 Rio Strada Racing
15403.41Michael Roecklein   Lake Forest, CA00:00.rd 259341  167 Monster Media Racing SCVELO
16408.54Peter Williams   Sacramento, CA00:00.rd 219604  129 Rio Strada Racing
17413.67Cody Tapley   Citrus Heights, CA00:00.rd 234610  137 Davis Bike Club
18418.80ryan Spaulding   Petaluma, CA00:00.rd 310838  122 Adventures Edge
19423.93Nathan Shaw   Castro Valley, CA00:00.rd 196249  138 Fusion Sport USA
20429.06Ryan Oakes   Chico, CA00:00.rd 258824  168 Bicycle Planet
21434.19Henry Rabas   West Sacramento, CA00:00.rd 28975  133 Team Bicycle Plus/Sierra Nevad
22439.32Devin Koch   Truckee, CA00:00.rd 260704  169 Dolce Vita Cycling
23444.45Steve Offerman   Sacramento, CA00:00.rd 81992  119 Rio Strada Racing
24449.58Kieran Cox   Oakland, CA00:00.rd 244305  164 Berkeley Bicycle Club (BBC)
25454.71paul diaz   Cloverdale, CA00:00.rd 271260  158 Unattached
26459.84Justin Leopold   Independence, MO00:00.rd 299868  162 Celerity Cycling p/b Brooks Systems
27464.97Byron Anson   West Sacramento, CA00:00.rd 304735  163 Team City Sacramento
28470.10Jeffrey Palileo   American Canyon, CA00:00.rd 224717  139 Squadra Ovest Cycling
29475.23Richard Nichols   Danville, CA00:00.rd 286421  277 Tri Valley Velo
30480.36Kalani Hines   San Francisco, CA00:00.rd 219316  132 metromint cycling
31485.49Kirk Evans   Sacramento, CA00:00.rd 259534  160 Team Becher+
32490.62Gary Land   Santa Rosa, CA00:00.rd 181093  111 Red Peloton
33495.75Chris Parod   Mather, CA00:00.rd 270992  166 Team Bicycles Plus/Sierra Neva
34500.88Gregory Hillson   San Francisco , CA00:00.rd 234863  159 Unattached
35506.01Jason Arinno   Elk Grove, CA00:00.rd 260928  131 Kinetic Cycles/GBI
36511.14Max Foorman   Folsom, CA00:00.rd 152445  165 Team Bicycles Plus/Sierra Neva
37516.27Alvaro Mosquera   Sacramento, CA00:00.rd 236809  117 Team Bicycles Plus/Sierra Neva
38521.40Paul Taylor   Brentwood, CA00:00.rd 207281  126 Metromint Cycling
39526.53Scott Butler   Columbia, MO00:00.rd 106701  151 Michael David Winery Cycling T
40531.66Nick Kinney   Windsor, CA00:00.rd 255460  110 Whole Athlete/Specialized
41536.79Steve Thomsen   Reno, NV00:00.rd 245436  157 Great Basin Imaging Cycling Te
42541.92Benjamin Barry   Arcata, CA00:00.rd 289212  100 Humboldt State Cycling
43547.05Daniel Vigil   San Francisco, CA00:00.rd 310724  161 Audi
44552.18Robert Napieralski   Springville, CA00:00.rd 271499  118 Sacramento Golden Wheelmen
45557.31Mark Fiori   Folsom, CA00:00.rd 112253  108 Davis Bike Club
46562.44R Todd Marshall   Sacramento, CA00:00.rd 43936  114 Kinetic Cycles/GBI
DNSBob McCamish   Roseville, CA00:00.rd 285998  115 Rio Strada Racing
DNPRich Tabuso   Roseville, CA00:00.rd 274439  124 Rio Strada Racing
DNPJohn Licatesi   Davis, CA00:00.rd 183265  113 Davis Bike Club

Men - Pro/Cat 1/2/3

 Place Points NameCity, StateTime USAC #BibTeam
1188.33David Albrecht   Chico, CA00:00.rd 47091  Chico Corsa Cycling Team
2193.23Chris Stastny   Vacaville, CA00:00.rd 249743  34 California Giant Berry Farms/S
3198.13Rand Miller (1 - Cat1)   San Francisco, CA00:00.rd 182990  64 Alto Velo Racing Club
4203.03Josh Rennie   Reno, NV00:00.rd 251736  28 TEAM CLIF BAR Cycling
5207.93Michael Jasinski (2 - Cat1)   Rocklin, CA00:00.rd 269476  16 Fremont Bank Cycling Team
6212.83Benjamin Swedberg   Kent, WA00:00.rd 200484  35 Cal Giant/Specialized
7217.73Nicholas Oliver   El Dorado Hills, CA00:00.rd 271541  82 Fremont Bank Cycling Team
8222.63Joshua Carling   Rancho Cordova, CA00:00.rd 234584  Michael David Winery Cycling T
9227.53Jeffrey Galland   Paradise, CA00:00.rd 127804  12 CHICO CORSA/SIERRA NEVADA
10232.43Sterling Magnell (1 - Pro)   Santa Rosa, CA00:00.rd 120588  79 McGuire Cycling Team
11237.33Robert Scheffler   Alamo, CA00:00.rd 239048  777 Wells Fargo Racing Team
12242.23Peter Graf (1 - Cat2)   Sacramento, CA00:00.rd 218511  75 American Lung Association Cycl
13247.13Nick Schaffner (2 - Cat2)   Truckee, CA00:00.rd 187296  781 Marc Pro - Strava
14252.03Alton Dunnigan   Pleasant Hill, CA00:00.rd 157044  Bicycle Planet
15256.93Carmi Schulman   Seattle, WA00:00.rd 200292  66 Squadra Ovest Cycling
16261.83Matt Tufts   Placerville, CA00:00.rd 240212  37 Bicycle Planet
17266.73Matt Chatlaong   Roseville, CA00:00.rd 304797  91 Team City Sacramento
18271.63Juniper Karl   Pismo Beach, CA00:00.rd 57946  17 Col Vento Cycling
19276.53Brandon Trafton (3 - Cat1)   Sacramento, CA00:00.rd 240033  45 California Giant Berry Farms/S
20281.43Todd Stone   Carmichael, CA00:00.rd 249318  87 Fremont Bank Cycling Team
21286.33Rob Cady   Elk Grove, CA00:00.rd 49774  776 Rocknasium
22291.23Judd Van Sickle   Sacramento, CA00:00.rd 127052  38 Mercedes Benz/Folsom Bike
23296.13Christopher Baker   Sacramento, CA00:00.rd 47424  775 Morgan Stanley Cycling Team
24301.03Dave Kause   Sacramento, CA00:00.rd 175157  50 belgiumbike/QS North America
25305.93Anthony Ferretti   Oroville, CA00:00.rd 283185  10 Chico Corsa
26310.83Cody Tapley   Citrus Heights, CA00:00.rd 234610  46 Davis Bike Club
27315.73Cody Kaiser   El Dorado Hills, CA00:00.rd 202564  779 California Giant Berry Farms/S
28320.63Oliver Weiss   Roseville, CA00:00.rd 79603  40 Rio Strada Racing
29325.53Jason Snovel   Sacramento, CA00:00.rd 268577  83 Mercedes Benz/Folsom Bike
30330.43Michael Roecklein   Lake Forest, CA00:00.rd 259341  753 Monster Media Racing SCVELO
31335.33Stephen Synhorst   Sacramento, CA00:00.rd 234097  773 Sacramento Golden Wheelmen
32340.23Mark Marquez   Martinez, CA00:00.rd 288881  62 Fremont Bank Cycling Team
33345.13Sean Smith   Oakland, CA00:00.rd 204018  48 Webcor/Alto Velo
34350.03Jeff Dillon   Folsom, CA00:00.rd 9524  772 Bicycle Planet
35354.93Benjamin Stern   Mequon, WI00:00.rd 238365  783 Team Mike's Bikes
36359.83Anthony Lopipero (1 - Cat3)   Pleasant Hill, CA00:00.rd 305627  780 Fremont Bank Cycling Team
37364.73Ally Stacher   Asheville, NC00:00.rd 258102  96 HTC Columbia Women's Team
38369.63Jason Snovel   Sacramento, CA00:00.rd 268577  33 Mercedes Benz/Folsom Bike
39374.53Kevin Tufts   Cameron Park, CA00:00.rd 243434  65 Bicycle Planet
40379.43Gregory Gambetta   Sacramento, CA00:00.rd 212916  97 Folsom Bike
41384.33Patrick McClurg   Citrus Heights, CA00:00.rd 48984  774 Mercedes Benz/Folsom Bike
42389.23ryan Spaulding (2 - Cat3)   Petaluma, CA00:00.rd 310838  88 Adventures Edge
43394.13Joel Robertson (4 - Cat1)   San Leandro, CA00:00.rd 220316  90 Webcor/Alto Velo
44399.03scott heather   Chico, CA00:00.rd 306577  13 Chico Corsa
45403.93Kirk Evans   Sacramento, CA00:00.rd 259534  84 Team Becher+
46408.83Jason Smith   Kensington, CA00:00.rd 53119  782 Dolce Vita Cycling
47413.73Nick Kinney (3 - Cat3)   Windsor, CA00:00.rd 255460  93 Whole Athlete
48418.63Kalani Hines   San Francisco, CA00:00.rd 219316  89 Metromint Cycling
49423.53Michael Painter   Chico Ca00:00.rd 289184  59 Chico Corsa Cycling Club
50428.43Shawn Rosenthal   Berkeley, CA00:00.rd 196247  44 Team Mike's Bikes
51433.33Joseph Staron   Sacramento, CA00:00.rd 132859  94 Unattached
52438.23Doran Mori   Oakland, CA00:00.rd 196267  68 TEAM CLIF BAR Cycling
53443.13Garrett Peck (3 - Cat2)   Lafayette, CA00:00.rd 213553  43 Davis Bike Club Race Team
54448.03Trevor White   Oakland, CA00:00.rd 503  70 CalNorte VC Switchbacks
55452.93Ryan Oakes   Chico, CA00:00.rd 258824  26 Bicycle Planet
56457.83C Scott Lee (4 - Cat3)   Sacramento, CA00:00.rd 103903  23 Greater Basin Imaging
57462.73Emily Kachorek   Sacramento, CA00:00.rd 167636  57 Primal/MapMyRide Womens Racing
58467.63Russell White   Lafayette, CA00:00.rd 236024  41 Davis Bike Club
59472.53Paul Morris   Carson City, NV00:00.rd 294725  60 TEAM CLIF BAR Cycling
60477.43Christopher Dudley   Reno, NV00:00.rd 285988  61 Nevada Cycling
61482.33Adam Ross   Folsom, CA00:00.rd 167796  30 Fremont Bank Cycling Team
62487.23William Myers   Carmichael, CA00:00.rd 306325  778 Team City Sacramento
63492.13Jesse Moore   Sacramento, CA00:00.rd 204739  24 California Giant Berry Farms/S
64497.03Evan Huffman   El Dorado Hills, CA00:00.rd 256955  15 Cal Giant/Specialized
65501.93Scott Fonseca   Fair Oaks, CA00:00.rd 204715  92 Zenn Racing Team
66506.83Richard Bradley   Sacramento, CA00:00.rd 223944  Rio Strada
67511.73Peter Knudsen (5 - Cat1)   Sacramento, CA00:00.rd 97881  18 Beer
68516.63Jeffrey Palileo   American Canyon, CA00:00.rd 224717  85 Squadra Ovest Cycling
DNSPeter Krogh   Nevada City, CA00:00.rd 177339  19 SHO-AIR/ SERT
DNSSteve Reaney (Cat1)   San Jose, CA00:00.rd 133288  27 California Giant Berry Farms/S
DNSRon Rouse   Sacramento, CA00:00.rd 166249  31 Rio Strada Racing
DNSMichael Claudio   West Sacramento, CA00:00.rd 248052  42 Davis Bike Club
DNPMatt Connolly (Cat2)   Sacramento, CA00:00.rd 302694  Rio Strada Racing
DNPEmily Kachorek   Sacramento, CA00:00.rd 167636  51 Primal/MapMyRide Womens Racing
DNPChristopher Baumann (Cat1)   Sacramento, CA00:00.rd 53271  83 Scott Valley Velo
DNPKieran Cox   Oakland, CA00:00.rd 244305  86 Berkeley Bicycle Club (BBC)
DNPStephen McCaw   Sacramento, CA00:00.rd 62322  95 Rocknasium
DNPChristine Sodaro   Tiburon, CA00:00.rd 295205  98 Red Peloton
DNPMary Ellen Ash   Menlo Park, CA00:00.rd 254874  99 Los Gatos

Women - Cat 4

 Place Points NameCity, StateTime USAC #BibTeam
1519.60Cristina Hughes   Zephyr Cove, NV00:00.rd 325664  909 
2522.82Stella Rosefield   Pleasanton, CA00:00.rd 304152  917 Tri Valley Velo
3526.04Colene Crowley   Carmichael, CA00:00.rd 129693  903 Rio Strada
4529.26Adrienne Belliveau   East Palo Alto, CA00:00.rd 303420  901 Team Roaring Mouse
5532.48Kaya Cohn   El Cerrito, CA00:00.rd 298978  902 Metromint Cycling
6535.70Jill Eyres   Montara, CA00:00.rd 282468  905 Team TIBCO II
7538.92Michele Feikert   Davis, CA00:00.rd 286411  906 Davis Bike Club Race Team
8542.14Shannon Mitchell   Santa Rosa, CA00:00.rd 307520  913 Red Peloton
9545.36Jill Fox   Folsom, CA00:00.rd 330926  907 Body Concepts
10548.58Heidi Littenberg   Reno, NV00:00.rd 286191  910 Lost River Cycling
11551.80Kris Opbroek   Sausalito, CA00:00.rd 331400  928 Dolce Vita Cycling
12555.02Heather McDonald   San Francisco, CA00:00.rd 307890  911 Metromint Cycling
13558.24Gale DeRosa   Gold River, CA00:00.rd 332412  904 Metromint
14561.46Maryann Schrupp   Reno, NV00:00.rd 288460  920 Team Tibco II
15564.68Deanna McKenzie   Santarosa, CA00:00.rd 303472  912 Fightin' Bobas
16567.90Carrie McFarland   Sanfrancisco, CA00:00.rd 303920  923 Dolce Vita Cycling
17571.12Jennifer Baker   Sacramento, CA00:00.rd 337670  900 Rio Strada Racing
18574.34Karen Munoz   Cameronpark, CA00:00.rd 315886  915 Team Revolutions
DNSCynthia Moore   Roseville, CA00:00.rd 24891  914 Rio Strada Racing
DNSKrysta Rogers   Sacramento, CA00:00.rd 341432  916 Rio Strada

Women - Cat 3

 Place Points NameCity, StateTime USAC #BibTeam
1420.57Cybil Silberman   San Francisco, CA00:00.rd 325510  866 Early Bird Womens Developmenta
2429.87BobbiJo Price   Winner Sd00:00.rd 296075  857 Team TIBCO II
3439.17Allyson Kutler   San Francisco, CA00:00.rd 304509  854 Red Racing
4448.47Ashley Drum   Mill Valley , CA00:00.rd 307080  865 Metromint Cycling
5457.77Rhonda Serr   Reno00:00.rd 278473  861 Dolce Vita
6467.07Marianne Hernandez   Davis, CA00:00.rd 68813  852 Davis Bike Club
7476.37Katie Stonebraker   Sacramento, CA00:00.rd 226927  859 Rio Strada Racing
8485.67Phyllis Olrich   Grass Valley, CA00:00.rd 125288  870 Victory Velo
9494.97Sarah Conover   Auburn, CA00:00.rd 334218  850 Rio Strada Racing
10504.27Ellen Evans   Sacramento, CA00:00.rd 310883  869 Team Becher +
11513.57Ann Stuart   Sacramento, CA00:00.rd 250365  860 Touchstone Climbing
12522.87Cheryl Shwe   San Francisco, CA00:00.rd 271152  858 RED Racing
13532.17Martha Bellisle   Truckee, CA00:00.rd 293090  862 Red Peloton
14541.47Heather Lipana   Folsom, CA00:00.rd 333090  856 Rio Strada Racing
15550.77Sherri Lehman   Gold River, CA00:00.rd 274098  855 Rio Strada Racing
16560.07Kerry Stivaletti   Los Gatos, CA00:00.rd 239419  871 Team TIBCO II
17569.37Ann Kodani   Mountain View, CA00:00.rd 143018  853 Team Tibco II

Women - Pro/Cat 1/2/3

 Place Points NameCity, StateTime USAC #BibTeam
1211.12Emily Kachorek   Sacramento, CA00:00.rd 167636  805 Primal/MapMyRIDE
2234.08Ally Stacher   Asheville, NC00:00.rd 258102  818 HTC-High Road
3257.04Hanan Alves-Hyde (1 - Cat2)   Albany, CA00:00.rd 234966  833 Proman Hit Squad
4280.00Emily Matheu   Oakland, CA00:00.rd 277109  832 Third Pillar
5302.96Molly Van Houweling   Berkeley, CA00:00.rd 201051  828 Metromint Cycling
6325.92Emily Thurston   San Pablo, CA00:00.rd 128351  822 Missing Link Bicycle Co-op
7348.88Carol Irving (1 - Cat1)   Woodland, CA00:00.rd 17419  804 Touchstone Climbing
8371.84Mary Elizabeth Maroon (2 - Cat1)   Sacramento, CA00:00.rd 219555  815 Touchstone Climbing
9394.80Mary Ellen Ash   Menlo Park, CA00:00.rd 254874  826 Los Gatos
10417.76Janelle Kellman   Sausalito, CA00:00.rd 217916  829 RED RACING
11440.72Elis Bradshaw (3 - Cat1)   Oakland, CA00:00.rd 208125  801 Touchstone Climbing
12463.68Kate Ligler   Sausalito, CA00:00.rd 206217  830 RED RACING
13486.64Beverley McInnes   Carmichael, CA00:00.rd 60785  810 Rio Strada
14509.60Heather Lipana   Folsom, CA00:00.rd 333090  809 Rio Strada Racing
15532.56Ellen Evans (1 - Cat3)   Sacramento, CA00:00.rd 310883  831 Team Becher +
16555.52Rhonda Serr   Reno00:00.rd 278473  816 Dolce Vita
17578.48Katie Stonebraker   Sacramento, CA00:00.rd 226927  814 Velo Bella
DNSMarissa Axell   El Cerrito, CA00:00.rd 269569  800 Touchstone Climbing
DNSSarah Conover   Auburn, CA00:00.rd 334218  802 Rio Strada Racing
DNPSherri Lehman   Gold River, CA00:00.rd 274098  807 Rio Strada Racing
DNPChristine Sodaro   Tiburon, CA00:00.rd 295205  812 Red Peloton

Report missing or incorrect license numbers

Volkswagen
ShimanoBonk BreakerCUORESpyUSACDFSierra Nevada
UCI USA Cycling is the official governing body for all disciplines of competitive cycling in the United States. The 501c3, membership-based organization aims both to achieve sustained success in international cycling competition and to grow competitive cycling in America while delivering an exceptional customer experience.
View Children's Online Privacy Protection Policy
US Olympic Committee